EN

Hourly Weather Lukasheve

Today, 27 November, Friday

Time Temperature Precipitation Wind Pressure Humidity
00:00 +2°C° 0 mm 3 mps 759 mmHg 88%
01:00 +1°C° 0 mm 3 mps 759 mmHg 88%
02:00 +1°C° 0 mm 3 mps 759 mmHg 85%
03:00 +1°C° 0 mm 3 mps 759 mmHg 85%
04:00 +1°C° 0 mm 3 mps 758 mmHg 84%
05:00 +1°C° 0 mm 3 mps 758 mmHg 84%
06:00 0°C° 0 mm 4 mps 758 mmHg 86%
07:00 0°C° 0 mm 4 mps 758 mmHg 87%
08:00 0°C° 0 mm 4 mps 758 mmHg 88%
09:00 +1°C° 0 mm 4 mps 758 mmHg 84%
10:00 +3°C° 0 mm 5 mps 757 mmHg 79%
11:00 +5°C° 0 mm 5 mps 757 mmHg 75%
12:00 +5°C° 0 mm 5 mps 757 mmHg 73%
13:00 +6°C° 0 mm 5 mps 757 mmHg 72%
14:00 +7°C° 0 mm 5 mps 756 mmHg 70%
15:00 +7°C° 0 mm 5 mps 756 mmHg 73%
16:00 +7°C° 0 mm 4 mps 756 mmHg 76%
17:00 +7°C° 0 mm 4 mps 756 mmHg 79%
18:00 +6°C° 0 mm 4 mps 756 mmHg 81%
19:00 +6°C° 0 mm 5 mps 756 mmHg 83%
20:00 +6°C° 0 mm 5 mps 756 mmHg 84%
21:00 +6°C° 0 mm 5 mps 756 mmHg 87%
22:00 +5°C° 0 mm 5 mps 756 mmHg 89%
23:00 +5°C° 0 mm 5 mps 756 mmHg 91%

Tomorrow, 28 November, Saturday

Time Temperature Precipitation Wind Pressure Humidity
00:00 +5°C° 0 mm 5 mps 756 mmHg 91%
01:00 +6°C° 0 mm 5 mps 756 mmHg 91%
02:00 +6°C° 0 mm 5 mps 756 mmHg 91%
03:00 +6°C° 0 mm 4 mps 755 mmHg 92%
04:00 +6°C° 0 mm 4 mps 755 mmHg 92%
05:00 +6°C° 0 mm 4 mps 755 mmHg 93%
06:00 +6°C° 0 mm 5 mps 755 mmHg 92%
07:00 +6°C° 0 mm 5 mps 755 mmHg 90%
08:00 +6°C° 0 mm 5 mps 756 mmHg 89%
09:00 +7°C° 0 mm 6 mps 756 mmHg 85%
10:00 +7°C° 0 mm 6 mps 756 mmHg 82%
11:00 +8°C° 0 mm 7 mps 755 mmHg 78%
12:00 +8°C° 0 mm 6 mps 755 mmHg 75%
13:00 +8°C° 0 mm 6 mps 755 mmHg 72%
14:00 +9°C° 0 mm 6 mps 755 mmHg 70%
15:00 +8°C° 0 mm 6 mps 755 mmHg 72%
16:00 +8°C° 0 mm 5 mps 755 mmHg 74%
17:00 +7°C° 0 mm 5 mps 755 mmHg 76%
18:00 +7°C° 0 mm 5 mps 755 mmHg 80%
19:00 +7°C° 0 mm 5 mps 755 mmHg 84%
20:00 +7°C° 0 mm 5 mps 755 mmHg 88%
21:00 +6°C° 0 mm 5 mps 755 mmHg 88%
22:00 +6°C° 0 mm 4 mps 755 mmHg 89%
23:00 +6°C° 0 mm 4 mps 755 mmHg 89%

Day after tomorrow, 29 November, Sunday

Time Temperature Precipitation Wind Pressure Humidity
00:00 +6°C° 0 mm 4 mps 755 mmHg 85%
01:00 +6°C° 0 mm 4 mps 755 mmHg 82%
02:00 +6°C° 0 mm 5 mps 755 mmHg 78%
03:00 +6°C° 0 mm 5 mps 755 mmHg 77%
04:00 +6°C° 0 mm 5 mps 755 mmHg 76%
05:00 +5°C° 0 mm 5 mps 754 mmHg 75%
06:00 +5°C° 0 mm 5 mps 755 mmHg 78%
07:00 +5°C° 0 mm 5 mps 755 mmHg 80%
08:00 +3°C° 0 mm 5 mps 755 mmHg 83%
09:00 +6°C° 0 mm 5 mps 755 mmHg 83%
10:00 +7°C° 0 mm 6 mps 755 mmHg 83%
11:00 +8°C° 0 mm 6 mps 755 mmHg 83%
12:00 +8°C° 0 mm 6 mps 755 mmHg 81%
13:00 +9°C° 0 mm 6 mps 755 mmHg 79%
14:00 +9°C° 0 mm 6 mps 755 mmHg 76%
15:00 +8°C° 0 mm 6 mps 755 mmHg 79%
16:00 +8°C° 0 mm 6 mps 755 mmHg 82%
17:00 +7°C° 0 mm 5 mps 755 mmHg 85%
18:00 +7°C° 0 mm 6 mps 755 mmHg 86%
19:00 +5°C° 0 mm 6 mps 756 mmHg 86%
20:00 +4°C° 0 mm 6 mps 756 mmHg 86%
21:00 +5°C° 0 mm 5 mps 756 mmHg 86%
22:00 +5°C° 0 mm 5 mps 756 mmHg 87%
23:00 +5°C° 0 mm 5 mps 756 mmHg 87%

30 November, Monday

Time Temperature Precipitation Wind Pressure Humidity
00:00 +5°C° 0 mm 5 mps 756 mmHg 87%
01:00 +5°C° 0 mm 5 mps 756 mmHg 88%
02:00 +5°C° 0 mm 4 mps 756 mmHg 88%
03:00 +5°C° 0 mm 4 mps 756 mmHg 87%
04:00 +4°C° 0 mm 4 mps 756 mmHg 86%
05:00 +4°C° 0 mm 4 mps 756 mmHg 85%
06:00 +4°C° 0 mm 4 mps 757 mmHg 86%
07:00 +4°C° 0 mm 4 mps 757 mmHg 88%
08:00 +3°C° 0 mm 4 mps 757 mmHg 89%
09:00 +3°C° 0 mm 5 mps 757 mmHg 86%
10:00 +5°C° 0 mm 5 mps 757 mmHg 83%
11:00 +5°C° 0 mm 5 mps 757 mmHg 80%
12:00 +6°C° 0 mm 5 mps 757 mmHg 78%
13:00 +6°C° 0 mm 5 mps 757 mmHg 76%
14:00 +6°C° 0 mm 5 mps 757 mmHg 73%
15:00 +6°C° 0 mm 4 mps 757 mmHg 75%
16:00 +5°C° 0 mm 4 mps 757 mmHg 76%
17:00 +4°C° 0 mm 4 mps 757 mmHg 78%
18:00 +4°C° 0 mm 4 mps 758 mmHg 78%
19:00 +3°C° 0 mm 4 mps 758 mmHg 78%
20:00 +3°C° 0 mm 4 mps 758 mmHg 78%
21:00 +3°C° 0 mm 4 mps 758 mmHg 80%
22:00 +3°C° 0 mm 4 mps 758 mmHg 81%
23:00 +3°C° 0 mm 4 mps 758 mmHg 83%

1 December, Tuesday

Time Temperature Precipitation Wind Pressure Humidity
00:00 +3°C° 0 mm 4 mps 758 mmHg 82%
01:00 +1°C° 0 mm 4 mps 758 mmHg 82%
02:00 +1°C° 0 mm 4 mps 758 mmHg 82%
03:00 +1°C° 0 mm 5 mps 758 mmHg 80%
04:00 0°C° 0 mm 5 mps 758 mmHg 79%
05:00 0°C° 0 mm 5 mps 758 mmHg 77%
06:00 0°C° 0 mm 5 mps 758 mmHg 76%
07:00 0°C° 0 mm 5 mps 758 mmHg 75%
08:00 -1°C° 0 mm 5 mps 758 mmHg 75%
09:00 0°C° 0 mm 5 mps 758 mmHg 74%
10:00 0°C° 0 mm 5 mps 758 mmHg 72%
11:00 +1°C° 0 mm 5 mps 758 mmHg 71%
12:00 +1°C° 0 mm 5 mps 758 mmHg 72%
13:00 +1°C° 0 mm 5 mps 758 mmHg 72%
14:00 +1°C° 0 mm 6 mps 757 mmHg 73%
15:00 +1°C° 0 mm 6 mps 757 mmHg 75%
16:00 +1°C° 0 mm 5 mps 757 mmHg 77%
17:00 0°C° 0 mm 5 mps 757 mmHg 79%
18:00 +1°C° 0 mm 5 mps 757 mmHg 81%
19:00 +1°C° 0 mm 5 mps 757 mmHg 82%
20:00 +1°C° 0 mm 6 mps 757 mmHg 84%
21:00 +1°C° 0 mm 6 mps 757 mmHg 82%
22:00 +1°C° 0 mm 6 mps 757 mmHg 81%
23:00 +1°C° 0 mm 6 mps 757 mmHg 79%

2 December, Wednesday

Time Temperature Precipitation Wind Pressure Humidity
00:00 +2°C° 0 mm 6 mps 758 mmHg 78%
01:00 +2°C° 0 mm 6 mps 758 mmHg 77%
02:00 +2°C° 0 mm 6 mps 758 mmHg 76%
03:00 +1°C° 0 mm 6 mps 758 mmHg 76%
04:00 +1°C° 0 mm 6 mps 758 mmHg 76%
05:00 +1°C° 0 mm 6 mps 758 mmHg 76%
06:00 +1°C° 0 mm 6 mps 758 mmHg 75%
07:00 +1°C° 0 mm 6 mps 758 mmHg 75%
08:00 +1°C° 0 mm 6 mps 759 mmHg 75%
09:00 +1°C° 0 mm 6 mps 759 mmHg 74%
10:00 +1°C° 0 mm 6 mps 759 mmHg 72%
11:00 +1°C° 0 mm 6 mps 759 mmHg 71%
12:00 +2°C° 0 mm 6 mps 759 mmHg 70%
13:00 +2°C° 0 mm 5 mps 759 mmHg 69%
14:00 +2°C° 0 mm 5 mps 759 mmHg 68%
15:00 +1°C° 0 mm 5 mps 759 mmHg 68%
16:00 +1°C° 0 mm 5 mps 759 mmHg 69%
17:00 +1°C° 0 mm 5 mps 760 mmHg 69%
18:00 +1°C° 0 mm 5 mps 760 mmHg 70%
19:00 +1°C° 0 mm 5 mps 760 mmHg 71%
20:00 +1°C° 0 mm 5 mps 760 mmHg 71%
21:00 0°C° 0 mm 5 mps 760 mmHg 72%
22:00 0°C° 0 mm 5 mps 760 mmHg 73%
23:00 0°C° 0 mm 5 mps 760 mmHg 74%
Show more